[[{"header":{"parameterUnit":"m.s-1","parameterCategory":1,"la1":30.2992,"la2":30.254,"lo1":-89.0895,"lo2":-89.0443,"dy":0.0025,"dx":0.0025,"nx":19,"ny":19,"refTime":"2026-05-23T21:00:00:Z","depth":0,"parameterNumber":2,"parameterNumberName":"U-component_of_WINDS"},"data":[0,0,0,0.9297,0.9296,0.9271,0.9271,0.9239,0.9238,0,0,0,0,0,0,0,0,0,0,0,0.9304,0.9304,0.9297,0.9296,0.9271,0.9271,0.9239,0.9238,0,0,0,0,0,0,0,0,0,0,0,0.9304,0.9304,0.9304,0.9296,0.9271,0.9271,0.9239,0.9258,0,0,0,0,0,0,0,0,0,0,0.9283,0.9289,0.9304,0.9304,0.9296,0.9271,0.9271,0.9259,0.9257,0.925,0,0.9244,0,0.924,0.9236,0.9236,0,0,0,0.9297,0.9291,0.9284,0.9304,0.9296,0.9271,0.9282,0.9258,0.9255,0.9247,0.9243,0.9242,0.924,0.9236,0.9236,0.9195,0.9194,0,0,0.9298,0.93,0.9286,0.9283,0.9286,0.9283,0.9282,0.9256,0.9252,0.9243,0.9241,0.9239,0.9236,0.9235,0.9195,0.9195,0,0,0,0.9302,0.9301,0.9295,0.9284,0.9279,0.9283,0.9281,0.9253,0.9251,0.9241,0.9239,0.9236,0.9235,0.9195,0.9195,0.9185,0,0,0,0.9303,0.9303,0.9295,0.9296,0.928,0.9266,0.9278,0.9253,0.925,0.9239,0.9235,0.9235,0.9195,0.9195,0.9186,0.918,0,0,0,0.9306,0.9303,0.93,0.9296,0.9285,0.9266,0.9263,0.9252,0.9249,0.9236,0.9235,0.9195,0.9195,0.9186,0.9181,0.9169,0,0,0,0.931,0.9292,0.9299,0.9279,0.9285,0.926,0.9263,0.9244,0.9232,0.9235,0.9195,0.9195,0.9187,0.9182,0.917,0.9158,0.9154,0,0,0.9289,0.929,0.9277,0.9283,0.9257,0.9264,0.9237,0.9225,0.9223,0.9204,0.9203,0.9186,0.9181,0.9169,0.913,0.9126,0,0,0,0.9271,0.9262,0.9255,0.9243,0.9233,0.9223,0.9215,0.921,0.9194,0.9213,0.9178,0.9176,0.9168,0.9163,0.916,0.9153,0.9192,0.9192,0.9193,0.9243,0.924,0.9219,0.9213,0.9201,0.9192,0.9183,0.9175,0.9177,0.9168,0.9162,0.9139,0.9132,0.913,0.9123,0.9157,0.9157,0.9157,0.9157,0.921,0.9197,0.9198,0.9178,0.9175,0.9158,0.9149,0.915,0.9134,0.9143,0.9137,0.9146,0.9126,0.912,0.9156,0.9156,0.9156,0.9156,0.9156,0.9191,0.9184,0.9178,0.916,0.9146,0.9141,0.9125,0.9123,0.9122,0.9115,0.9108,0.9108,0.9108,0.9112,0.9112,0.9112,0.9112,0.9112,0.9112,0.9173,0.9167,0.9153,0.914,0.9131,0.912,0.911,0.9102,0.9092,0.9093,0.9093,0.9094,0.9125,0.9132,0.911,0.9111,0.9111,0.9111,0.9111,0.914,0.9147,0.9126,0.9117,0.9101,0.9087,0.9085,0.9068,0.9061,0.9053,0.9056,0.9079,0.9081,0.9083,0.9089,0.9057,0.9057,0.9057,0.9057,0.9123,0.9123,0.9101,0.9087,0.9073,0.9069,0.9045,0.9037,0.903,0.9025,0.903,0.9038,0.904,0.904,0.9043,0.9049,0.9008,0.9007,0.9007,0.9102,0.9101,0.9081,0.9073,0.906,0.9049,0.9026,0.901,0.9003,0.9005,0.9021,0.9023,0.9036,0.9041,0.9043,0.9048,0.9058,0,0]},{"header":{"parameterUnit":"m.s-1","parameterCategory":1,"la1":30.2992,"la2":30.254,"lo1":-89.0895,"lo2":-89.0443,"dy":0.0025,"dx":0.0025,"nx":19,"ny":19,"refTime":"2026-05-23T21:00:00:Z","depth":0,"parameterNumber":3,"parameterNumberName":"V-component_of_WINDS"},"data":[0,0,0,1.1099,1.1097,1.1012,1.1012,1.0904,1.0903,0,0,0,0,0,0,0,0,0,0,0,1.1127,1.1126,1.1099,1.1097,1.1012,1.1012,1.0904,1.0903,0,0,0,0,0,0,0,0,0,0,0,1.1127,1.1126,1.1126,1.1097,1.1012,1.1012,1.0904,1.0967,0,0,0,0,0,0,0,0,0,0,1.1049,1.1079,1.1127,1.1126,1.1096,1.1012,1.1012,1.097,1.0963,1.0943,0,1.0928,0,1.0914,1.0896,1.0895,0,0,0,1.1094,1.1085,1.1059,1.1126,1.1095,1.1012,1.105,1.0966,1.0959,1.0934,1.0927,1.0923,1.0912,1.0895,1.0895,1.0791,1.0791,0,0,1.1099,1.1113,1.1065,1.1055,1.107,1.1052,1.1047,1.0962,1.0954,1.0926,1.092,1.091,1.0894,1.0894,1.0791,1.0791,0,0,0,1.1114,1.1116,1.1093,1.1059,1.1044,1.105,1.1044,1.0957,1.0949,1.0919,1.0909,1.0894,1.0893,1.0792,1.0791,1.0786,0,0,0,1.1117,1.1125,1.1095,1.1102,1.1046,1.1,1.1042,1.0955,1.0945,1.091,1.0894,1.0892,1.0792,1.0791,1.0787,1.0781,0,0,0,1.1131,1.1127,1.1116,1.1103,1.1068,1.1001,1.0988,1.0952,1.0939,1.0895,1.0891,1.0792,1.0792,1.0788,1.0782,1.0756,0,0,0,1.115,1.1113,1.1116,1.107,1.1068,1.1,1.0988,1.0936,1.0898,1.0893,1.0792,1.0791,1.0788,1.0783,1.0757,1.0735,1.0728,0,0,1.111,1.1109,1.108,1.108,1.1015,1.1012,1.0944,1.0896,1.0879,1.0821,1.0818,1.0787,1.0782,1.0756,1.0687,1.0681,0,0,0,1.1072,1.1052,1.1031,1.0997,1.096,1.0927,1.0888,1.0869,1.0819,1.0853,1.0771,1.0768,1.0752,1.074,1.0736,1.072,1.0787,1.0787,1.0787,1.1035,1.1015,1.0966,1.0936,1.0902,1.0862,1.0831,1.0799,1.079,1.077,1.0752,1.0713,1.07,1.0697,1.068,1.0741,1.0741,1.0741,1.0741,1.0973,1.094,1.0927,1.0875,1.0854,1.0809,1.0767,1.0761,1.0715,1.0725,1.071,1.0721,1.0691,1.0676,1.074,1.074,1.074,1.0741,1.0741,1.0944,1.0925,1.0904,1.0851,1.0811,1.0781,1.0737,1.0719,1.0702,1.0687,1.0664,1.0664,1.066,1.0678,1.0678,1.0678,1.0677,1.0677,1.0677,1.0922,1.0899,1.0865,1.0822,1.0796,1.076,1.0717,1.0691,1.0656,1.0646,1.0646,1.0636,1.0693,1.0706,1.0675,1.0675,1.0676,1.0676,1.0676,1.0863,1.0874,1.0821,1.0795,1.0741,1.0702,1.068,1.0627,1.0602,1.058,1.0573,1.0619,1.0615,1.0618,1.0629,1.0579,1.0579,1.0579,1.0579,1.0838,1.0835,1.0775,1.0735,1.0693,1.0668,1.0605,1.0571,1.0537,1.0519,1.0524,1.0538,1.0542,1.0535,1.0541,1.055,1.0482,1.0481,1.0481,1.0799,1.0791,1.0742,1.0711,1.0667,1.0629,1.0569,1.052,1.0484,1.0477,1.0505,1.0509,1.053,1.0539,1.0531,1.054,1.0558,0,0]}]]